Temp
9 9 8 9 9 9 9 8 8 9 9 9 9 9 9 9 9 9 9 9 9 9 9 9 9 9 8 8 8 8 8 8 8 8 8 8 8 8 8 8 8 8 8 9 9 9 9 8 8 8 8 8 8 8 8 8 8 8 8 8 8 8 8 8 8 8 8 8 7 7 8 8 8 8 8 8 8 8 8 8 8 9 9 9 10
9 9 9 9 9 9 9 8 9 9 9 9 9 9 9 9 9 9 9 9 9 9 9 9 9 8 8 8 8 8 8 8 8 8 8 8 8 8 8 8 8 8 8 8 8 9 9 9 9 9 9 8 8 8 8 8 8 8 8 8 8 8 7 8 8 8 8 8 7 7 8 8 8 8 8 8 8 8 8 8 8 8 9 9 9
9 9 9 9 9 9 9 8 9 9 9 9 9 9 9 9 9 9 9 9 9 9 9 9 8 8 8 8 8 8 8 8 8 8 8 8 8 8 8 8 9 9 9 9 9 8 9 9 9 9 9 8 8 8 8 8 8 8 8 8 8 7 7 7 8 8 8 8 8 7 8 8 8 8 8 8 8 8 8 8 8 9 9 9 9
10 10 9 9 9 9 9 9 9 9 9 9 9 9 9 9 9 9 9 9 9 9 9 8 8 8 8 8 8 8 8 8 8 8 8 8 8 8 9 9 9 9 9 9 9 9 9 9 9 9 8 8 8 8 8 8 8 8 8 8 8 7 7 7 8 8 8 8 8 7 8 8 8 8 8 8 8 8 8 8 8 8 9 9 9
10 10 10 10 9 9 9 9 9 9 9 9 9 9 9 9 9 9 9 9 9 9 8 8 8 8 8 8 8 8 8 8 8 8 8 8 9 9 9 9 9 9 9 9 9 9 9 9 9 9 8 8 8 8 8 8 8 8 8 8 8 8 8 7 8 8 8 8 8 8 7 8 8 8 8 8 8 8 8 8 8 8 8 8 9
10 10 10 10 10 9 9 9 9 9 9 9 9 9 9 9 9 9 9 9 9 8 8 8 8 8 8 8 8 8 8 8 8 8 8 8 9 9 9 9 9 9 9 9 9 9 9 9 9 9 8 8 8 8 8 8 8 8 7 7 7 8 8 8 7 8 8 8 8 8 8 8 8 8 8 8 8 8 8 8 8 8 8 8 8
10 10 10 10 10 10 9 9 9 9 9 9 9 9 9 9 9 9 9 9 8 8 8 8 8 8 8 8 8 9 8 8 8 8 8 8 9 9 9 9 9 9 9 9 9 9 9 9 9 9 8 8 8 8 8 8 8 7 7 8 8 8 8 8 8 8 8 8 8 8 8 8 8 8 8 8 8 8 8 8 8 8 8 8 8
10 10 10 10 10 10 10 10 9 9 9 9 9 9 9 9 9 9 9 8 8 8 8 8 8 8 8 8 9 9 8 8 8 8 8 8 9 9 9 9 9 9 9 9 9 9 9 9 9 9 8 8 8 8 8 8 8 8 8 8 8 8 8 8 8 8 8 8 8 8 8 8 8 8 8 8 8 8 8 8 8 8 8 8 8
10 10 10 10 10 10 10 10 10 9 9 9 9 9 9 9 9 9 9 8 8 8 8 8 8 8 8 8 9 9 8 8 8 8 8 8 9 9 9 9 9 9 9 9 9 9 9 9 9 8 8 8 8 8 8 8 8 8 8 8 8 8 8 8 8 8 8 8 8 8 8 8 8 8 8 8 8 8 8 8 8 8 8 8 8
10 10 10 10 10 10 10 10 10 10 9 9 9 9 9 9 9 9 9 8 8 8 8 8 8 8 8 9 9 8 8 8 8 8 8 8 8 9 9 9 9 9 9 9 9 9 9 9 9 8 8 8 8 8 8 8 8 8 8 8 8 8 8 8 8 8 8 8 8 8 8 8 8 8 8 8 8 8 8 8 8 8 7 7 8
10 10 10 10 10 10 10 10 10 10 9 9 9 9 9 9 9 9 9 8 8 8 8 8 8 9 9 9 8 8 8 8 8 8 8 8 8 9 9 9 9 9 8 8 8 8 8 8 8 8 8 8 8 8 8 8 8 8 8 8 8 8 8 8 8 8 8 8 8 8 8 8 8 8 8 8 8 8 8 8 8 8 7 7 7
11 10 10 10 10 10 10 10 10 10 10 9 9 9 9 9 9 9 8 8 8 8 8 8 9 9 9 8 8 8 8 8 8 8 8 8 8 9 9 9 9 8 8 8 8 8 8 8 8 8 8 8 8 8 8 8 8 8 8 8 8 8 8 8 8 8 8 8 8 8 8 8 8 8 8 8 7 7 7 8 8 8 8 7 7
11 10 10 10 10 10 10 10 10 10 10 9 9 9 9 9 9 9 8 8 8 9 9 9 9 9 9 9 8 8 8 8 8 8 8 8 8 9 9 9 9 9 8 8 8 8 8 8 8 8 8 8 8 8 8 8 8 8 8 8 8 8 8 8 8 8 8 8 8 9 9 8 8 8 8 8 7 7 7 7 7 7 8 8 7
11 11 10 10 10 10 10 10 10 10 10 10 9 9 9 9 9 9 9 9 9 9 9 9 9 9 9 9 9 8 8 8 8 8 8 8 8 8 9 9 9 9 8 8 8 8 8 8 8 8 8 8 8 8 8 8 8 8 8 8 8 8 8 8 8 8 8 8 8 9 9 9 8 8 8 8 8 8 7 7 7 7 8 8 8
11 11 10 10 10 10 10 10 10 10 10 10 9 9 9 9 9 9 9 9 9 9 9 9 9 9 9 9 8 8 8 9 9 8 8 8 8 8 9 9 9 8 8 8 8 8 8 8 8 8 8 8 8 8 8 8 8 8 8 8 8 8 8 8 8 8 8 8 8 9 9 9 9 9 8 8 8 8 8 8 8 8 8 8 8
10 10 10 10 10 10 10 10 10 10 10 10 10 9 9 9 9 9 9 9 9 9 9 9 9 9 9 8 8 8 9 9 9 8 8 8 8 8 8 8 8 8 8 8 8 8 8 8 8 8 8 8 8 8 8 8 8 8 8 8 8 8 8 8 8 8 8 8 8 9 9 9 9 9 9 9 8 8 8 8 8 8 8 8 8
10 10 10 10 10 10 10 10 10 10 10 10 10 9 9 9 9 9 9 9 9 9 9 9 9 9 9 8 8 8 9 9 9 8 8 8 8 8 8 8 8 8 8 8 8 8 8 8 8 8 8 8 8 8 8 8 8 8 8 8 8 8 8 8 8 8 8 8 8 8 9 9 9 9 9 9 9 9 8 9 9 9 9 9 9
10 10 10 10 10 10 10 10 10 10 10 10 10 9 9 9 9 9 9 9 9 9 9 9 9 9 9 8 8 8 8 9 9 9 8 8 8 8 8 8 8 8 8 8 8 8 8 8 8 8 8 8 8 8 8 8 8 8 8 8 8 8 8 8 8 8 8 8 8 8 8 9 9 9 9 9 9 9 9 9 9 9 9 9 9
10 10 10 10 10 10 10 11 11 10 10 10 10 10 9 9 9 9 9 9 9 9 9 9 9 9 9 8 8 8 8 8 8 8 9 8 8 8 8 8 8 8 8 8 8 8 8 8 8 8 8 8 8 8 8 8 8 8 8 7 8 8 8 8 8 8 8 8 8 8 8 8 8 9 9 9 9 9 9 9 9 9 9 9 9
11 11 10 10 10 10 10 10 10 10 10 10 10 10 10 9 9 9 9 9 9 9 9 9 9 9 9 8 8 8 9 8 8 8 8 8 8 8 8 8 8 8 8 8 8 8 8 8 8 8 8 8 8 8 8 8 8 8 8 8 8 8 8 8 8 8 8 8 8 8 8 8 8 8 8 9 9 9 9 9 9 9 9 9 9
11 11 10 10 10 10 11 10 10 10 10 10 10 10 10 9 9 9 9 9 9 9 9 9 9 9 9 9 9 9 9 9 8 8 8 8 8 8 8 8 8 8 8 8 8 8 8 8 8 8 8 8 8 8 8 8 8 8 8 8 8 8 8 8 8 8 8 8 8 8 8 8 8 8 8 8 9 9 9 9 9 9 9 9 9
11 11 10 10 10 10 10 10 10 10 10 10 10 10 10 10 10 10 10 10 10 9 9 9 9 9 9 9 9 9 9 9 9 9 8 8 8 8 8 9 9 8 8 8 8 8 8 8 8 8 8 8 8 8 8 8 8 8 8 8 8 8 8 8 8 8 8 8 8 8 8 8 8 8 8 8 8 8 9 9 9 9 9 9 9
11 11 11 11 10 10 10 10 10 10 10 10 10 10 10 10 10 10 10 10 10 9 9 9 9 9 9 9 9 9 9 9 9 9 9 9 9 8 9 9 9 9 8 8 8 8 8 8 8 8 8 7 7 7 7 8 8 8 8 8 8 8 8 8 8 8 8 8 8 8 8 8 8 8 8 8 8 8 8 9 9 9 9 9 8
12 11 11 11 11 11 10 10 10 10 10 10 10 10 10 10 10 10 10 10 10 9 9 9 9 9 9 9 9 9 9 9 9 9 9 9 9 9 9 9 9 9 9 8 8 8 8 8 8 8 8 8 7 7 7 7 8 8 8 9 9 9 9 9 9 8 8 8 8 8 8 8 8 8 8 8 8 8 8 8 8 9 9 9 8
11 11 11 11 11 11 11 11 11 10 10 10 10 10 10 10 10 10 10 10 10 9 9 9 9 9 9 9 9 9 9 9 9 9 9 9 9 9 8 8 9 9 9 9 8 8 8 8 8 8 8 8 8 7 7 8 8 8 8 9 9 9 9 9 9 8 8 8 8 8 8 8 8 8 8 8 8 8 8 8 8 8 8 9 8
11 11 11 11 11 11 11 11 11 11 11 10 10 10 10 10 10 10 10 10 9 9 9 9 9 9 9 9 9 9 9 9 9 9 9 9 9 9 8 8 8 9 9 9 8 8 8 8 8 8 8 8 8 8 8 8 8 8 8 9 9 9 9 9 9 9 9 8 8 8 8 8 8 8 8 8 8 8 8 8 8 8 8 8 8
12 11 11 11 11 11 11 11 11 11 11 11 10 10 10 10 10 10 10 10 9 9 9 9 9 9 9 9 9 9 9 9 9 9 9 9 9 9 9 9 8 9 9 9 8 8 8 8 8 8 8 8 8 8 8 8 8 8 8 9 8 8 8 8 8 9 9 9 9 8 8 8 8 8 8 8 8 8 8 8 8 8 8 8 8
12 11 11 11 11 11 11 11 11 11 11 11 11 10 10 10 10 10 10 10 9 9 9 9 9 9 9 9 9 9 9 9 9 9 9 9 9 9 9 9 8 9 9 9 8 8 8 8 8 8 8 8 8 8 8 8 8 8 8 9 8 8 8 8 8 8 9 9 9 9 8 8 8 8 8 8 8 8 8 8 8 8 8 7 7
12 12 12 12 11 11 11 11 11 11 11 11 11 10 10 10 10 10 10 10 10 9 9 9 9 9 9 9 9 9 9 9 9 9 9 9 9 9 9 9 9 9 9 9 9 8 8 8 8 8 8 8 8 8 8 8 8 8 8 9 9 9 9 8 8 8 9 9 9 9 8 8 8 8 8 8 8 8 8 8 8 8 8 7 7
12 12 12 12 11 11 11 11 11 11 11 11 11 11 10 10 10 10 10 10 10 9 9 9 9 9 9 9 9 9 9 9 9 9 9 9 9 9 9 9 9 9 9 9 9 9 9 9 8 8 8 8 8 8 8 8 8 8 8 8 9 9 9 9 8 9 9 9 9 9 8 8 8 8 8 8 8 8 8 8 8 8 8 8 7
12 12 12 11 11 11 11 11 11 11 11 11 11 11 10 10 10 10 10 10 9 9 9 9 9 9 9 9 9 9 9 9 9 9 9 9 9 9 9 9 9 9 9 9 9 9 9 9 8 8 8 9 8 8 8 8 8 8 8 9 10 10 9 9 8 8 9 9 9 9 9 9 8 8 8 8 8 8 8 8 8 8 8 8 7
12 12 11 11 11 11 11 11 11 11 11 11 11 10 10 10 10 10 10 9 9 9 9 9 9 9 9 9 9 9 9 9 9 9 9 9 9 9 9 9 9 9 9 9 9 9 9 9 9 9 9 9 9 8 8 8 8 8 8 9 10 10 9 9 8 8 9 9 9 9 9 9 8 8 8 8 8 8 8 8 7 7 7 7 7
12 11 11 11 11 11 11 11 11 11 11 11 10 10 10 10 10 10 9 9 10 9 9 9 9 9 9 9 9 9 9 9 9 9 9 9 9 9 9 9 9 9 9 9 9 9 9 9 9 9 9 9 9 8 8 8 8 8 8 9 10 10 10 9 9 8 9 9 9 9 9 9 8 8 8 8 8 8 8 7 7 7 7 7 7
12 11 11 11 11 11 11 11 11 11 11 11 10 10 10 10 10 10 9 10 10 10 9 9 9 9 9 9 9 9 9 9 9 9 9 9 9 9 9 9 9 9 9 9 9 9 9 9 9 9 9 9 9 9 8 8 8 9 9 9 9 10 10 9 9 9 9 8 8 8 9 9 9 8 8 8 8 8 8 8 7 7 7 7 8
12 12 12 11 11 11 11 11 11 11 11 11 10 10 10 10 10 10 10 10 10 10 10 9 10 9 9 9 9 9 9 9 10 10 10 10 10 10 9 9 9 9 9 9 9 9 9 9 9 9 9 9 9 9 8 8 9 9 9 9 10 10 10 9 9 9 8 8 8 8 8 8 8 8 8 8 8 8 8 8 8 8 7 8 8
12 12 11 11 11 11 11 11 11 11 11 11 10 10 10 10 10 10 10 10 10 10 10 10 9 10 10 10 9 9 9 10 10 10 10 10 10 10 10 10 9 9 9 9 9 9 9 9 9 9 9 9 9 9 9 9 9 9 9 10 10 10 10 9 9 9 8 8 8 8 8 8 8 8 8 8 8 8 8 8 8 8 8 8 8
12 11 11 11 11 11 11 11 11 11 11 11 11 11 10 10 10 10 10 10 10 10 10 10 10 10 10 10 10 10 9 10 10 10 10 10 10 10 10 10 10 10 10 10 10 9 9 9 9 9 9 9 9 9 9 9 10 10 10 10 10 10 10 9 9 9 9 9 8 8 8 8 8 8 7 7 7 7 8 8 8 8 8 8 8
12 11 11 11 11 11 11 11 11 11 11 11 11 11 11 10 10 10 10 10 10 10 10 10 10 10 10 10 10 10 10 10 10 10 10 10 10 10 10 10 10 10 10 10 10 10 9 9 9 9 9 10 10 10 10 10 10 10 10 10 10 10 10 10 9 9 9 8 8 8 7 7 8 8 8 7 7 7 7 7 7 7 7 7 7
12 12 11 11 11 11 11 11 11 11 11 11 11 11 11 11 11 11 11 11 10 10 10 10 10 10 10 10 10 10 10 10 10 10 10 10 10 10 10 10 10 10 10 10 10 9 9 10 10 10 10 10 10 10 10 10 10 11 10 10 10 10 10 10 10 9 9 8 8 8 8 8 8 8 8 8 7 7 7 7 7 7 7 7 7
12 12 12 12 12 11 11 11 11 11 11 11 11 11 11 11 11 11 11 11 11 11 10 10 10 10 10 10 10 10 10 10 10 10 10 10 10 10 10 10 10 10 10 10 10 10 10 10 10 10 11 11 11 11 11 11 11 11 11 11 10 10 10 11 10 9 9 8 8 8 8 8 8 8 8 8 8 7 7 7 7 7 7 7 7
12 12 12 12 12 12 12 12 12 12 12 12 12 12 12 12 12 12 11 11 11 11 11 10 10 10 10 10 10 10 10 10 10 10 10 10 10 10 10 10 10 10 10 10 10 10 10 11 11 11 11 11 11 11 11 11 11 11 11 11 10 10 11 11 11 10 9 8 8 8 8 8 8 8 8 8 8 8 8 8 8 7 7 7 7
12 12 13 12 12 12 12 12 12 12 13 13 13 13 12 12 12 11 11 11 10 11 10 10 10 10 10 10 10 10 10 10 10 10 10 10 10 10 10 10 10 10 10 10 10 11 11 11 11 11 11 11 11 11 11 11 11 11 11 11 10 10 11 11 10 10 9 9 9 8 8 8 8 8 8 8 8 8 8 8 8 8 8 7 7
13 13 13 13 12 12 13 12 12 13 13 13 13 13 12 12 11 11 10 10 10 10 10 10 10 10 10 10 10 10 10 10 10 10 10 10 10 10 10 10 10 10 10 11 11 11 11 11 11 11 11 11 11 11 11 11 11 11 11 11 11 10 11 10 10 10 10 10 9 9 8 8 9 8 8 8 8 8 8 8 8 8 8 8 8
13 13 13 13 13 13 13 13 13 13 13 13 13 12 12 11 11 11 10 10 10 10 10 10 10 10 10 10 10 10 10 10 10 10 10 10 10 10 10 10 10 11 11 11 11 11 11 11 11 11 11 11 11 11 11 11 11 11 11 11 11 11 11 10 10 10 10 10 10 9 9 9 10 9 8 8 8 8 8 8 8 8 8 8 8
14 14 14 14 14 14 14 13 13 13 13 13 13 12 12 11 11 11 11 11 11 11 11 11 11 11 10 10 10 10 10 10 10 10 10 10 10 10 10 11 11 11 11 11 11 11 11 11 11 11 11 11 11 11 11 11 11 11 11 11 11 11 11 10 10 10 10 9 10 10 10 10 10 9 9 8 8 8 8 7 7 8 8 8 8
14 14 14 14 14 14 14 14 13 13 13 13 13 13 12 12 12 12 12 12 12 12 11 11 11 11 10 10 10 10 10 10 10 10 10 10 10 11 11 11 11 11 11 11 11 11 11 11 11 11 11 11 11 10 10 10 10 11 11 11 10 10 11 10 10 10 10 9 9 9 10 10 10 9 8 8 8 8 8 8 7 8 8 8 8
15 15 14 14 14 14 14 14 13 13 13 13 13 13 13 12 12 12 12 12 12 11 11 11 11 10 10 10 10 10 9 10 10 10 10 10 10 11 11 11 11 11 11 11 11 11 11 11 11 11 10 10 10 10 10 10 10 10 10 10 10 10 10 10 10 10 10 9 10 9 9 10 10 9 9 8 7 7 7 7 7 7 8 8 8
15 15 15 14 14 14 14 14 14 13 13 13 13 13 13 13 12 12 12 12 12 12 11 11 11 10 10 10 10 10 10 10 10 10 10 10 11 11 12 11 11 11 11 11 11 11 11 11 11 10 10 10 10 10 10 10 10 10 10 10 10 10 10 10 10 10 10 10 10 10 9 10 9 9 9 8 8 7 6 6 6 7 7 7 8
15 15 15 14 14 14 14 14 14 14 14 13 13 13 13 13 13 12 12 12 12 12 11 11 11 11 10 10 10 10 10 10 10 10 10 11 11 12 12 12 11 11 11 11 11 11 11 11 11 10 10 10 10 10 10 10 10 9 9 9 9 9 9 10 10 10 10 10 10 10 10 10 9 9 9 8 8 7 7 6 6 7 7 7 7
15 15 15 14 14 14 14 14 14 14 14 14 13 13 13 13 13 12 12 12 12 12 11 11 11 11 11 11 10 10 10 10 10 10 10 11 11 12 12 12 11 11 11 11 11 11 11 11 10 10 10 10 10 10 10 10 9 9 9 9 9 9 9 9 9 9 9 9 9 10 10 10 9 9 9 8 8 8 7 7 7 7 7 6 6
14 14 14 14 14 14 14 14 14 14 14 14 14 13 13 13 13 13 12 12 12 12 12 12 12 12 12 11 11 10 10 10 10 10 11 11 12 12 12 12 12 11 11 11 11 11 11 10 10 10 10 10 10 10 10 10 9 9 9 9 9 9 9 9 9 9 9 9 9 9 9 9 9 9 9 9 8 8 8 7 7 7 7 6 6
Height
3166 3168 3169 3170 3171 3172 3174 3175 3177 3178 3180 3181 3182 3183 3184 3185 3186 3187 3189 3190 3192 3193 3194 3195 3196 3197 3197 3197 3197 3197 3197 3198 3198 3199 3199 3199 3199 3199 3199 3199 3198 3198 3198 3197 3197 3197 3197 3197 3196 3196 3196 3196 3197 3197 3197 3197 3197 3196 3196 3195 3195 3194 3194 3193 3192 3191 3191 3191 3192 3192 3193 3193 3194 3194 3195 3195 3196 3196 3197 3197 3198 3198 3198 3199 3199
3168 3169 3170 3171 3172 3173 3175 3177 3178 3180 3181 3182 3184 3185 3186 3186 3188 3189 3190 3192 3193 3195 3196 3197 3197 3198 3198 3198 3198 3199 3199 3199 3200 3200 3200 3199 3200 3199 3199 3199 3199 3199 3198 3198 3198 3198 3198 3197 3197 3197 3197 3197 3197 3197 3197 3197 3197 3197 3196 3196 3195 3195 3194 3194 3193 3192 3192 3192 3192 3193 3193 3194 3195 3195 3195 3196 3196 3197 3197 3197 3197 3198 3198 3199 3199
3169 3170 3171 3172 3173 3175 3176 3178 3180 3181 3183 3184 3185 3186 3187 3188 3189 3190 3192 3194 3195 3196 3197 3198 3198 3199 3199 3199 3199 3200 3200 3201 3201 3201 3201 3200 3200 3200 3200 3200 3199 3199 3198 3198 3199 3199 3198 3198 3198 3198 3198 3198 3198 3198 3198 3197 3197 3197 3197 3197 3196 3196 3195 3194 3194 3193 3193 3193 3193 3194 3194 3195 3195 3196 3196 3196 3197 3197 3197 3197 3197 3198 3198 3199 3199
3171 3172 3173 3174 3175 3176 3178 3179 3181 3183 3184 3185 3186 3187 3188 3189 3191 3192 3194 3195 3196 3197 3198 3199 3199 3199 3200 3200 3201 3201 3201 3201 3202 3202 3202 3201 3201 3201 3201 3200 3200 3199 3199 3199 3199 3200 3199 3199 3199 3199 3199 3198 3198 3198 3198 3198 3198 3198 3198 3197 3197 3196 3196 3195 3195 3194 3194 3194 3194 3195 3195 3196 3196 3196 3197 3197 3197 3197 3197 3197 3197 3197 3198 3198 3199
3172 3174 3174 3175 3176 3177 3179 3181 3183 3184 3185 3186 3187 3188 3189 3190 3192 3194 3195 3196 3198 3199 3200 3200 3200 3201 3201 3202 3202 3202 3202 3202 3202 3203 3202 3202 3202 3201 3201 3201 3200 3200 3200 3200 3200 3200 3200 3200 3200 3199 3199 3199 3199 3199 3199 3198 3198 3198 3198 3198 3198 3197 3197 3197 3196 3196 3195 3195 3195 3195 3196 3197 3197 3197 3197 3197 3197 3198 3198 3198 3198 3198 3198 3198 3199
3174 3175 3176 3177 3177 3179 3181 3182 3184 3185 3186 3187 3188 3190 3191 3192 3193 3195 3196 3198 3199 3200 3201 3201 3202 3202 3203 3203 3203 3203 3203 3203 3203 3203 3203 3203 3202 3202 3202 3201 3201 3201 3201 3201 3201 3201 3200 3200 3200 3200 3199 3199 3200 3200 3199 3199 3199 3199 3199 3198 3198 3198 3198 3198 3197 3197 3197 3196 3196 3197 3197 3197 3198 3198 3197 3198 3198 3198 3199 3199 3198 3198 3199 3199 3200
3175 3176 3177 3178 3179 3180 3182 3183 3184 3186 3187 3188 3190 3191 3192 3193 3195 3196 3198 3199 3200 3201 3202 3202 3203 3203 3203 3203 3203 3204 3204 3204 3204 3204 3204 3204 3203 3203 3202 3202 3202 3202 3202 3202 3202 3202 3201 3201 3201 3200 3200 3199 3201 3201 3200 3200 3200 3200 3201 3200 3199 3199 3198 3198 3198 3198 3198 3197 3197 3198 3198 3199 3199 3199 3198 3199 3199 3199 3200 3200 3200 3200 3200 3200 3200
3176 3177 3178 3180 3181 3182 3183 3184 3185 3187 3188 3189 3191 3192 3193 3194 3196 3198 3199 3200 3201 3202 3203 3203 3204 3204 3204 3204 3204 3205 3205 3206 3206 3205 3205 3204 3204 3204 3203 3203 3203 3203 3203 3203 3203 3203 3202 3202 3201 3201 3200 3200 3201 3201 3200 3201 3201 3202 3202 3201 3200 3200 3199 3199 3199 3199 3199 3199 3199 3199 3199 3200 3200 3200 3200 3200 3200 3200 3200 3201 3201 3201 3201 3201 3202
3177 3178 3180 3181 3182 3183 3184 3185 3186 3188 3189 3190 3192 3193 3194 3195 3197 3199 3200 3201 3202 3203 3203 3204 3205 3205 3205 3205 3206 3206 3207 3207 3206 3206 3206 3205 3205 3205 3204 3204 3204 3204 3204 3204 3204 3203 3203 3202 3202 3201 3201 3201 3202 3201 3201 3201 3202 3202 3202 3201 3201 3200 3200 3200 3200 3200 3200 3200 3200 3200 3200 3201 3201 3201 3201 3201 3201 3201 3201 3202 3202 3202 3202 3203 3203
3178 3179 3180 3182 3183 3184 3185 3186 3187 3189 3190 3191 3192 3194 3195 3197 3198 3200 3201 3202 3203 3204 3204 3205 3205 3206 3206 3207 3207 3207 3207 3207 3207 3207 3206 3206 3206 3205 3205 3205 3205 3206 3206 3205 3205 3204 3204 3203 3202 3202 3202 3202 3202 3202 3202 3202 3202 3203 3202 3202 3202 3201 3201 3201 3201 3201 3201 3201 3201 3201 3201 3202 3202 3202 3202 3202 3202 3202 3203 3203 3203 3203 3204 3204 3204
3178 3180 3181 3183 3184 3185 3186 3187 3188 3190 3191 3192 3193 3195 3196 3198 3200 3201 3202 3203 3204 3205 3205 3206 3206 3207 3207 3208 3208 3208 3208 3208 3208 3207 3207 3207 3206 3206 3206 3206 3207 3207 3207 3206 3206 3205 3204 3204 3203 3203 3203 3203 3203 3203 3203 3203 3203 3203 3203 3203 3202 3202 3202 3202 3202 3202 3201 3201 3202 3202 3202 3202 3202 3203 3203 3203 3203 3204 3204 3204 3204 3204 3205 3205 3205
3179 3181 3182 3183 3185 3186 3187 3188 3189 3191 3192 3193 3194 3196 3197 3199 3201 3202 3203 3204 3205 3206 3206 3207 3207 3208 3208 3209 3209 3209 3209 3209 3208 3208 3208 3208 3207 3207 3207 3208 3208 3208 3208 3207 3207 3206 3205 3205 3205 3205 3204 3204 3204 3204 3204 3204 3203 3203 3204 3203 3203 3203 3203 3203 3202 3202 3202 3202 3202 3203 3203 3203 3203 3203 3203 3204 3204 3204 3205 3205 3205 3205 3205 3206 3206
3180 3181 3183 3184 3186 3187 3188 3189 3191 3192 3193 3194 3195 3197 3199 3200 3201 3203 3204 3205 3206 3207 3207 3208 3208 3209 3209 3209 3209 3209 3209 3209 3209 3209 3209 3209 3208 3208 3209 3209 3209 3209 3209 3208 3207 3207 3207 3206 3206 3206 3206 3205 3205 3205 3205 3205 3204 3204 3204 3204 3204 3204 3204 3203 3203 3203 3203 3203 3203 3203 3204 3204 3204 3204 3204 3204 3205 3205 3205 3205 3205 3206 3206 3206 3207
3181 3182 3184 3185 3186 3188 3189 3190 3192 3193 3194 3195 3197 3198 3200 3201 3202 3203 3204 3206 3207 3207 3208 3208 3209 3210 3210 3210 3210 3210 3210 3210 3210 3210 3210 3210 3210 3210 3210 3210 3210 3210 3210 3209 3208 3208 3208 3208 3208 3207 3207 3206 3206 3206 3206 3206 3205 3205 3205 3205 3205 3205 3204 3204 3204 3204 3204 3204 3204 3204 3204 3204 3204 3204 3204 3205 3205 3205 3206 3206 3206 3206 3206 3206 3207
3183 3184 3185 3186 3188 3189 3190 3192 3192 3193 3195 3196 3198 3199 3201 3202 3203 3204 3205 3206 3207 3208 3209 3209 3210 3210 3211 3211 3211 3210 3210 3211 3211 3211 3210 3210 3211 3211 3211 3211 3211 3211 3211 3210 3209 3209 3209 3209 3209 3208 3207 3207 3207 3206 3206 3206 3206 3205 3205 3205 3205 3205 3205 3205 3205 3205 3204 3204 3204 3204 3205 3205 3205 3205 3205 3205 3205 3205 3206 3206 3206 3206 3206 3206 3207
3184 3185 3186 3187 3189 3190 3191 3192 3193 3194 3195 3197 3198 3200 3201 3203 3204 3205 3206 3207 3208 3209 3209 3210 3210 3211 3211 3211 3211 3211 3211 3211 3211 3211 3211 3211 3212 3212 3212 3212 3212 3212 3211 3211 3210 3210 3210 3210 3209 3209 3208 3208 3207 3207 3206 3206 3206 3206 3205 3205 3206 3206 3205 3205 3205 3205 3205 3205 3205 3205 3205 3205 3205 3205 3205 3205 3205 3205 3206 3206 3206 3207 3207 3207 3207
3184 3185 3186 3188 3189 3191 3192 3193 3194 3195 3196 3198 3199 3200 3202 3203 3204 3205 3206 3207 3208 3209 3210 3210 3211 3211 3211 3211 3211 3211 3212 3212 3212 3212 3212 3212 3212 3213 3213 3213 3213 3213 3212 3212 3211 3211 3211 3210 3210 3209 3209 3209 3208 3207 3207 3206 3206 3206 3206 3206 3206 3206 3206 3206 3205 3205 3205 3205 3205 3205 3205 3205 3205 3205 3205 3205 3206 3206 3206 3206 3206 3207 3207 3207 3207
3184 3186 3187 3189 3190 3191 3192 3193 3194 3195 3197 3198 3199 3201 3202 3204 3205 3206 3207 3208 3208 3209 3210 3211 3211 3211 3212 3212 3212 3212 3212 3212 3212 3213 3213 3213 3213 3213 3214 3214 3214 3213 3213 3212 3212 3212 3211 3211 3210 3210 3210 3209 3209 3208 3207 3207 3206 3206 3206 3206 3206 3206 3206 3206 3206 3206 3206 3205 3205 3205 3205 3205 3206 3205 3205 3205 3206 3206 3206 3206 3206 3207 3207 3208 3208
3184 3186 3188 3189 3190 3192 3193 3194 3195 3196 3197 3198 3200 3201 3203 3204 3205 3206 3207 3208 3209 3210 3210 3211 3211 3212 3212 3212 3212 3212 3213 3213 3213 3213 3213 3214 3214 3214 3214 3214 3214 3214 3213 3213 3213 3212 3212 3211 3211 3211 3211 3210 3209 3209 3208 3208 3207 3206 3206 3206 3206 3206 3206 3206 3206 3206 3206 3206 3206 3206 3206 3206 3206 3206 3206 3206 3206 3206 3206 3206 3207 3207 3207 3208 3208
3185 3186 3188 3189 3191 3192 3194 3195 3196 3197 3198 3199 3200 3202 3203 3204 3205 3206 3207 3208 3209 3210 3211 3211 3212 3212 3212 3213 3213 3213 3213 3213 3213 3214 3214 3214 3214 3214 3214 3214 3214 3214 3214 3214 3213 3213 3213 3212 3212 3211 3211 3211 3210 3210 3209 3208 3207 3207 3207 3206 3206 3206 3206 3206 3207 3207 3206 3206 3206 3206 3206 3206 3206 3206 3206 3206 3206 3206 3206 3207 3207 3207 3207 3208 3208
3185 3186 3188 3190 3191 3193 3194 3195 3196 3197 3198 3199 3201 3202 3203 3204 3205 3207 3208 3209 3209 3210 3211 3212 3212 3213 3213 3213 3213 3213 3214 3214 3214 3214 3214 3214 3214 3214 3214 3214 3214 3214 3214 3214 3214 3214 3213 3213 3212 3212 3211 3211 3211 3210 3209 3209 3208 3207 3207 3207 3207 3206 3206 3206 3207 3207 3207 3207 3207 3207 3207 3207 3207 3207 3207 3207 3207 3207 3207 3207 3207 3207 3207 3208 3208
3184 3186 3188 3189 3191 3193 3194 3195 3196 3197 3199 3200 3201 3202 3203 3205 3206 3207 3208 3209 3210 3211 3211 3212 3212 3213 3213 3214 3214 3214 3214 3214 3214 3214 3215 3215 3215 3215 3215 3215 3215 3214 3214 3214 3214 3214 3214 3213 3213 3212 3212 3211 3211 3210 3210 3209 3208 3207 3207 3207 3207 3206 3206 3206 3206 3207 3207 3207 3207 3207 3207 3207 3207 3208 3208 3208 3207 3207 3207 3207 3207 3207 3207 3208 3208
3184 3186 3187 3189 3191 3192 3194 3195 3197 3198 3199 3200 3201 3203 3204 3205 3206 3207 3208 3209 3210 3211 3211 3212 3213 3213 3213 3214 3214 3214 3214 3215 3215 3215 3215 3215 3215 3215 3215 3215 3215 3215 3215 3215 3215 3215 3214 3214 3213 3213 3212 3211 3211 3210 3209 3209 3208 3207 3207 3207 3206 3206 3206 3206 3206 3206 3206 3207 3207 3207 3207 3207 3207 3208 3208 3208 3208 3208 3208 3208 3208 3208 3208 3208 3208
3185 3186 3188 3189 3191 3192 3194 3195 3197 3198 3199 3201 3202 3203 3204 3205 3206 3208 3209 3210 3210 3211 3212 3212 3213 3213 3213 3214 3214 3214 3215 3215 3215 3215 3216 3216 3215 3215 3215 3215 3215 3215 3215 3215 3215 3215 3215 3214 3214 3213 3212 3212 3211 3210 3209 3209 3208 3207 3206 3206 3205 3205 3205 3205 3205 3205 3206 3206 3207 3207 3207 3207 3207 3208 3208 3208 3208 3208 3208 3209 3209 3208 3208 3208 3208
3185 3187 3188 3189 3191 3192 3194 3195 3197 3198 3200 3201 3202 3203 3204 3205 3206 3208 3209 3210 3210 3211 3212 3212 3213 3213 3214 3214 3214 3215 3215 3216 3216 3216 3216 3216 3216 3216 3215 3215 3215 3215 3215 3215 3215 3215 3214 3214 3214 3213 3213 3212 3211 3210 3210 3209 3208 3207 3206 3205 3204 3204 3204 3204 3205 3205 3205 3206 3206 3206 3207 3207 3207 3208 3208 3208 3209 3209 3209 3209 3209 3209 3209 3209 3209
3185 3186 3188 3189 3191 3192 3194 3195 3197 3198 3200 3201 3202 3203 3204 3205 3207 3208 3209 3210 3210 3211 3212 3212 3213 3213 3214 3214 3215 3215 3216 3216 3216 3216 3216 3216 3216 3216 3216 3216 3215 3215 3215 3215 3215 3215 3214 3214 3213 3213 3213 3213 3212 3211 3210 3210 3209 3208 3206 3205 3204 3203 3204 3204 3204 3204 3205 3205 3205 3206 3206 3207 3207 3208 3208 3208 3208 3209 3209 3209 3209 3209 3209 3210 3210
3185 3186 3188 3190 3191 3193 3194 3195 3197 3199 3200 3201 3202 3203 3204 3205 3206 3207 3209 3209 3210 3211 3212 3212 3213 3213 3214 3214 3215 3215 3216 3216 3216 3216 3217 3217 3217 3216 3216 3216 3216 3216 3216 3216 3216 3215 3215 3214 3214 3213 3213 3213 3213 3212 3211 3210 3209 3208 3207 3206 3204 3204 3203 3203 3204 3204 3204 3204 3205 3205 3206 3206 3207 3208 3208 3208 3208 3208 3209 3209 3209 3210 3210 3210 3210
3185 3187 3188 3190 3191 3193 3194 3196 3197 3199 3200 3201 3202 3203 3204 3205 3206 3207 3208 3209 3210 3211 3211 3212 3213 3213 3214 3214 3215 3216 3216 3216 3216 3217 3217 3217 3217 3217 3216 3216 3216 3216 3216 3216 3216 3216 3215 3215 3214 3214 3213 3213 3212 3212 3212 3211 3209 3208 3207 3206 3205 3204 3204 3203 3203 3203 3204 3204 3204 3204 3205 3206 3206 3207 3208 3208 3208 3208 3209 3209 3210 3210 3210 3211 3211
3185 3187 3188 3190 3191 3193 3194 3196 3197 3198 3200 3201 3202 3203 3204 3205 3206 3207 3208 3209 3210 3210 3211 3212 3212 3213 3214 3214 3215 3216 3216 3216 3216 3217 3217 3217 3217 3217 3217 3217 3217 3216 3216 3216 3216 3215 3215 3215 3215 3214 3214 3213 3212 3212 3211 3210 3209 3208 3207 3207 3206 3205 3204 3204 3203 3203 3203 3203 3203 3204 3204 3205 3205 3206 3207 3208 3208 3208 3209 3210 3210 3210 3211 3211 3211
3186 3187 3188 3190 3191 3193 3194 3196 3197 3198 3200 3201 3202 3203 3204 3205 3206 3207 3208 3208 3209 3210 3211 3211 3212 3213 3214 3214 3215 3216 3216 3216 3217 3217 3217 3216 3216 3216 3216 3216 3217 3217 3217 3216 3216 3216 3215 3215 3215 3214 3214 3214 3213 3212 3211 3210 3209 3208 3207 3207 3206 3205 3205 3204 3203 3203 3202 3203 3203 3203 3203 3204 3205 3205 3206 3207 3208 3208 3209 3209 3210 3210 3211 3210 3211
3185 3187 3188 3190 3191 3193 3194 3196 3197 3198 3199 3201 3202 3203 3204 3205 3206 3207 3207 3208 3209 3209 3210 3211 3212 3213 3213 3214 3215 3215 3216 3216 3216 3217 3216 3216 3216 3216 3216 3216 3216 3217 3216 3216 3216 3216 3216 3215 3215 3214 3214 3213 3213 3212 3211 3210 3208 3207 3206 3206 3206 3206 3205 3204 3203 3203 3202 3202 3202 3202 3203 3203 3204 3205 3206 3207 3208 3208 3209 3209 3209 3210 3210 3210 3210
3185 3186 3188 3189 3191 3193 3194 3195 3197 3198 3199 3200 3201 3202 3204 3205 3205 3206 3207 3208 3208 3209 3210 3211 3211 3212 3213 3214 3214 3215 3215 3216 3216 3216 3216 3216 3216 3216 3216 3216 3216 3216 3216 3216 3216 3216 3215 3215 3215 3214 3213 3212 3212 3211 3210 3209 3208 3207 3206 3205 3206 3206 3205 3204 3203 3203 3202 3203 3203 3203 3203 3203 3204 3205 3205 3206 3207 3208 3209 3209 3209 3209 3210 3210 3210
3185 3186 3188 3189 3191 3192 3194 3195 3196 3197 3199 3200 3201 3202 3203 3204 3205 3206 3207 3207 3208 3209 3210 3210 3211 3212 3213 3213 3214 3214 3215 3215 3215 3215 3215 3215 3215 3215 3215 3216 3215 3215 3215 3215 3215 3215 3215 3215 3214 3213 3212 3211 3211 3210 3210 3209 3207 3207 3206 3204 3205 3206 3205 3204 3203 3203 3203 3203 3203 3203 3203 3203 3204 3204 3205 3206 3206 3207 3208 3208 3208 3208 3209 3210 3210
3184 3185 3187 3189 3190 3192 3193 3194 3196 3197 3198 3199 3200 3201 3202 3203 3205 3206 3206 3207 3208 3208 3209 3210 3211 3212 3212 3213 3213 3214 3214 3214 3214 3215 3215 3215 3215 3215 3215 3215 3215 3215 3215 3215 3215 3214 3214 3214 3213 3212 3211 3211 3211 3210 3209 3208 3207 3207 3206 3205 3204 3204 3204 3204 3203 3203 3203 3203 3203 3203 3203 3204 3204 3204 3205 3205 3206 3207 3207 3207 3207 3208 3209 3210 3210
3183 3185 3186 3188 3190 3191 3193 3194 3195 3196 3197 3198 3200 3201 3202 3203 3204 3205 3206 3206 3207 3208 3209 3210 3211 3211 3212 3212 3213 3213 3214 3214 3214 3214 3214 3214 3214 3214 3215 3215 3215 3215 3215 3214 3214 3214 3214 3213 3212 3211 3210 3210 3210 3210 3210 3209 3208 3207 3206 3205 3203 3203 3203 3203 3203 3202 3202 3203 3203 3204 3204 3204 3204 3204 3204 3205 3205 3206 3207 3207 3207 3208 3208 3209 3210
3183 3184 3186 3188 3189 3191 3192 3193 3195 3196 3197 3198 3199 3200 3201 3202 3203 3204 3205 3206 3207 3207 3208 3209 3210 3211 3211 3212 3212 3213 3213 3213 3213 3213 3213 3213 3213 3214 3214 3214 3214 3214 3214 3214 3213 3213 3213 3212 3212 3211 3210 3210 3209 3209 3209 3208 3208 3207 3206 3205 3203 3203 3202 3202 3202 3202 3202 3202 3203 3204 3204 3204 3204 3204 3204 3205 3205 3206 3206 3206 3206 3207 3207 3208 3209
3182 3184 3185 3186 3188 3190 3191 3192 3194 3195 3196 3197 3198 3199 3200 3201 3202 3203 3204 3205 3206 3207 3208 3208 3209 3210 3210 3211 3211 3212 3212 3212 3212 3212 3212 3213 3213 3213 3213 3214 3214 3213 3213 3213 3213 3212 3212 3211 3211 3210 3210 3209 3208 3208 3208 3207 3207 3206 3205 3204 3203 3202 3202 3201 3201 3202 3202 3203 3203 3204 3204 3204 3204 3204 3204 3204 3204 3205 3206 3206 3206 3206 3206 3207 3208
3181 3183 3184 3186 3187 3189 3190 3192 3193 3194 3195 3197 3198 3199 3200 3201 3201 3202 3203 3204 3205 3206 3207 3207 3208 3209 3209 3210 3210 3211 3211 3211 3211 3211 3212 3212 3212 3212 3212 3213 3213 3212 3212 3212 3212 3212 3211 3211 3210 3210 3209 3208 3208 3207 3206 3206 3206 3205 3204 3203 3202 3201 3201 3201 3201 3201 3202 3203 3203 3203 3203 3203 3203 3203 3204 3204 3204 3204 3205 3205 3206 3206 3206 3206 3207
3180 3181 3183 3185 3186 3188 3189 3190 3192 3193 3194 3195 3197 3198 3199 3199 3200 3201 3202 3203 3204 3205 3206 3207 3207 3208 3208 3209 3210 3210 3210 3210 3210 3211 3211 3211 3211 3212 3212 3212 3212 3212 3212 3212 3211 3211 3210 3210 3209 3209 3208 3207 3207 3206 3206 3205 3205 3204 3203 3202 3201 3201 3200 3200 3201 3201 3202 3202 3202 3203 3203 3203 3203 3203 3203 3203 3204 3204 3204 3205 3205 3205 3206 3206 3206
3178 3180 3181 3183 3184 3186 3187 3189 3190 3191 3193 3194 3195 3196 3197 3198 3199 3200 3201 3202 3203 3204 3205 3206 3206 3207 3207 3208 3208 3209 3209 3209 3210 3210 3211 3211 3211 3211 3211 3211 3211 3211 3211 3211 3210 3210 3210 3209 3209 3208 3207 3207 3206 3206 3205 3205 3204 3203 3203 3202 3202 3201 3200 3200 3200 3201 3202 3201 3202 3202 3202 3202 3202 3202 3202 3203 3203 3203 3204 3204 3204 3204 3205 3206 3206
3176 3178 3179 3181 3183 3184 3186 3187 3188 3190 3191 3193 3194 3195 3196 3197 3198 3199 3200 3201 3202 3203 3204 3205 3205 3206 3206 3207 3207 3207 3208 3208 3209 3209 3210 3210 3210 3211 3211 3210 3210 3210 3210 3210 3210 3209 3209 3208 3208 3207 3207 3206 3206 3205 3205 3205 3204 3203 3203 3202 3202 3201 3201 3200 3200 3201 3202 3201 3201 3201 3202 3202 3201 3201 3201 3202 3203 3203 3203 3203 3203 3204 3204 3204 3205
3174 3176 3177 3179 3181 3183 3184 3186 3187 3188 3190 3191 3193 3194 3195 3197 3198 3199 3200 3200 3201 3202 3203 3204 3204 3204 3205 3205 3206 3206 3206 3207 3207 3208 3208 3209 3210 3210 3210 3210 3210 3210 3209 3209 3209 3208 3208 3208 3208 3207 3207 3206 3206 3206 3205 3204 3204 3203 3203 3202 3202 3202 3201 3201 3201 3201 3201 3201 3201 3201 3201 3201 3201 3201 3201 3201 3202 3202 3203 3203 3203 3203 3203 3203 3203
3173 3174 3176 3177 3179 3181 3182 3184 3186 3187 3189 3190 3192 3193 3194 3196 3197 3198 3198 3199 3200 3200 3201 3202 3202 3202 3203 3204 3204 3205 3205 3206 3206 3207 3208 3208 3209 3209 3209 3209 3209 3209 3209 3208 3208 3208 3208 3208 3208 3208 3207 3207 3206 3206 3205 3204 3204 3203 3203 3202 3202 3202 3201 3201 3201 3201 3201 3201 3201 3201 3201 3201 3201 3201 3201 3201 3201 3201 3202 3203 3203 3203 3203 3203 3203
3171 3172 3174 3175 3177 3179 3181 3183 3184 3186 3188 3189 3190 3192 3193 3194 3195 3196 3196 3197 3198 3198 3199 3199 3200 3200 3201 3202 3203 3203 3204 3205 3205 3206 3207 3208 3208 3209 3209 3209 3208 3208 3208 3208 3208 3208 3208 3208 3208 3208 3208 3207 3207 3206 3205 3205 3204 3204 3203 3203 3202 3201 3201 3201 3201 3201 3201 3201 3201 3201 3201 3201 3201 3200 3200 3200 3200 3200 3201 3202 3202 3202 3202 3202 3202
3168 3170 3172 3174 3176 3178 3180 3181 3183 3185 3186 3188 3189 3190 3191 3192 3193 3193 3194 3195 3195 3196 3197 3197 3198 3199 3200 3201 3202 3202 3203 3203 3204 3205 3206 3207 3207 3208 3208 3207 3208 3208 3208 3208 3208 3208 3209 3209 3209 3208 3208 3208 3207 3207 3206 3205 3204 3204 3203 3203 3202 3201 3201 3201 3201 3201 3201 3201 3201 3201 3201 3200 3200 3200 3200 3200 3200 3200 3200 3201 3201 3201 3201 3201 3201
3167 3169 3171 3173 3175 3176 3178 3179 3181 3183 3184 3186 3187 3188 3189 3190 3191 3191 3192 3193 3194 3195 3196 3196 3197 3198 3199 3200 3201 3201 3202 3202 3203 3204 3205 3206 3206 3206 3206 3207 3207 3207 3207 3208 3208 3209 3209 3209 3209 3209 3208 3208 3207 3207 3206 3205 3205 3204 3203 3203 3202 3202 3201 3201 3200 3200 3200 3201 3201 3201 3200 3200 3199 3199 3199 3199 3199 3200 3200 3200 3199 3199 3200 3200 3199
3165 3167 3169 3171 3172 3174 3176 3177 3179 3180 3182 3183 3185 3186 3187 3188 3189 3190 3191 3192 3193 3194 3195 3195 3196 3197 3198 3199 3199 3200 3200 3201 3202 3203 3204 3205 3205 3205 3205 3206 3206 3206 3207 3207 3208 3209 3209 3209 3209 3209 3208 3208 3208 3207 3206 3206 3205 3204 3203 3202 3202 3202 3201 3201 3200 3200 3200 3200 3200 3200 3200 3200 3199 3199 3199 3199 3200 3200 3200 3199 3199 3198 3198 3198 3198
3164 3165 3167 3168 3170 3172 3173 3175 3177 3178 3180 3181 3182 3183 3185 3186 3187 3188 3189 3190 3191 3193 3193 3194 3194 3195 3196 3197 3198 3198 3199 3200 3201 3203 3203 3204 3204 3204 3204 3205 3206 3206 3207 3207 3208 3209 3209 3209 3209 3209 3208 3208 3208 3207 3206 3206 3205 3204 3203 3202 3201 3201 3201 3201 3200 3200 3200 3200 3200 3200 3200 3200 3199 3199 3199 3199 3199 3200 3200 3200 3199 3198 3197 3197 3197
3162 3163 3165 3167 3168 3170 3171 3173 3175 3176 3178 3179 3180 3181 3183 3184 3185 3186 3187 3188 3190 3191 3191 3192 3192 3193 3194 3195 3196 3197 3198 3199 3200 3201 3202 3202 3202 3203 3203 3204 3205 3206 3206 3207 3208 3208 3209 3209 3208 3208 3208 3208 3208 3207 3207 3206 3205 3204 3203 3202 3201 3201 3201 3200 3200 3200 3200 3200 3200 3199 3199 3199 3199 3199 3199 3199 3199 3199 3200 3200 3199 3198 3198 3197 3196
3159 3161 3163 3165 3166 3168 3169 3170 3172 3174 3175 3177 3178 3179 3180 3182 3183 3184 3185 3186 3187 3188 3189 3190 3190 3191 3192 3193 3194 3196 3197 3198 3199 3200 3201 3201 3201 3202 3203 3204 3204 3205 3206 3207 3207 3208 3208 3208 3208 3208 3208 3208 3207 3207 3206 3206 3205 3204 3203 3202 3202 3201 3201 3200 3200 3200 3200 3200 3200 3199 3199 3198 3198 3198 3199 3199 3199 3199 3199 3199 3199 3198 3198 3197 3196
3156 3158 3159 3161 3163 3164 3166 3168 3170 3172 3173 3174 3176 3177 3178 3179 3180 3181 3183 3184 3185 3186 3186 3187 3188 3189 3190 3192 3193 3194 3195 3197 3198 3198 3199 3199 3200 3201 3202 3203 3204 3205 3205 3206 3207 3207 3207 3208 3208 3208 3208 3208 3207 3207 3206 3206 3205 3204 3204 3203 3202 3201 3201 3200 3200 3200 3200 3199 3199 3198 3198 3198 3198 3198 3198 3198 3198 3198 3198 3198 3198 3198 3197 3197 3196
Wind_Speed
21 21 22 23 24 25 26 26 26 25 24 24 25 25 25 26 26 27 27 26 24 22 20 18 17 15 15 15 15 14 14 13 13 13 12 11 11 11 10 10 10 10 10 11 11 10 9 9 9 8 6 5 4 3 2 3 4 6 7 9 11 10 10 12 14 16 12 11 13 12 12 11 10 9 9 8 8 7 7 7 6 6 6 5 7
22 24 26 26 27 27 27 26 25 25 24 24 25 25 26 26 26 27 26 25 23 21 19 17 16 16 15 15 14 14 13 13 13 12 11 11 10 10 10 10 10 10 10 11 10 8 8 8 8 8 7 5 5 4 4 5 5 6 8 10 11 11 11 12 14 15 14 11 13 13 13 13 11 10 9 8 8 8 7 7 6 6 5 5 5
23 27 28 27 27 27 27 26 25 24 24 24 25 26 26 27 27 26 25 23 21 20 18 17 16 16 15 14 13 13 13 13 13 11 11 10 10 10 10 10 9 9 10 10 9 8 9 8 7 7 6 6 6 6 5 6 7 7 8 10 11 12 11 12 13 15 15 12 12 13 13 12 12 11 9 9 8 7 7 7 7 6 6 5 5
25 27 27 27 26 26 26 26 24 23 23 24 25 26 27 27 27 25 24 22 21 19 18 17 16 15 14 13 12 13 13 13 12 11 11 10 10 10 9 9 9 9 9 9 9 9 9 9 8 6 6 6 6 7 7 7 8 8 9 11 12 12 12 11 13 14 15 13 11 13 12 12 12 12 10 9 8 7 8 8 8 7 7 6 6
27 26 27 26 26 26 25 25 24 23 23 24 25 27 28 27 26 24 23 21 20 19 18 16 15 14 13 12 12 12 12 12 12 11 11 10 10 10 9 9 10 10 9 9 8 9 9 10 8 6 5 5 6 7 7 7 8 8 9 11 12 13 13 12 13 14 15 15 12 12 13 12 11 11 10 9 9 9 9 9 9 8 8 7 7
26 24 25 25 25 26 25 24 24 23 23 24 26 27 27 27 25 23 22 21 19 18 17 15 14 14 13 12 12 12 12 12 11 11 10 10 10 10 10 10 10 10 10 9 8 9 9 9 8 7 5 5 7 7 7 7 8 8 9 11 12 13 14 13 13 13 14 15 14 12 13 12 11 10 10 10 10 10 9 9 9 9 9 9 8
25 23 23 23 24 25 24 24 23 24 24 24 26 27 27 26 25 23 22 20 18 17 15 15 14 13 12 12 11 11 11 11 11 10 9 10 10 10 11 11 11 11 10 9 9 9 9 10 9 8 6 6 8 8 7 7 8 8 9 12 12 13 13 14 13 13 13 14 14 12 12 13 11 10 11 10 10 11 10 10 10 10 10 10 10
24 23 23 23 23 24 23 23 23 24 24 25 26 27 27 26 24 22 21 19 17 16 15 14 13 13 12 12 11 11 11 10 10 9 9 10 10 10 11 11 11 11 11 9 9 9 10 10 10 9 7 8 10 8 8 9 9 10 10 12 11 12 12 13 13 13 12 12 13 12 11 12 11 10 11 11 10 10 10 10 10 10 10 11 11
23 22 22 22 22 22 22 23 23 24 24 25 26 27 26 25 23 22 21 18 17 15 14 13 12 12 11 11 11 10 10 10 9 9 9 10 10 11 11 11 11 12 11 9 9 10 10 10 10 9 8 9 10 9 9 10 10 11 11 11 10 11 11 11 12 12 12 11 11 11 10 10 10 9 10 10 10 10 9 10 10 10 10 10 11
23 22 22 22 21 22 22 22 23 23 24 26 26 27 25 23 22 21 20 18 16 14 13 12 11 11 11 10 9 9 10 10 9 9 10 10 10 10 11 11 10 11 11 10 9 10 10 10 10 9 9 10 10 9 9 10 10 11 11 10 10 10 10 10 10 11 12 11 10 9 9 9 9 9 9 8 8 9 8 9 9 10 10 10 10
23 23 22 22 21 21 22 22 22 23 24 26 27 26 24 22 21 21 19 17 15 13 12 11 11 10 10 9 8 9 9 9 9 9 10 10 10 10 11 10 10 11 11 10 10 10 10 10 10 10 10 10 10 10 10 10 10 10 11 11 10 9 9 9 10 10 11 11 10 8 8 8 8 8 9 9 8 8 7 8 8 8 9 9 8
23 22 22 22 21 21 21 21 21 22 24 25 26 25 23 21 21 20 18 16 14 12 11 11 10 10 9 8 8 9 9 9 9 9 10 10 10 11 10 10 11 11 11 11 10 9 9 10 10 11 11 11 11 10 10 10 10 10 11 11 10 9 9 9 9 9 9 10 10 9 7 7 7 7 7 8 8 7 6 6 6 6 7 7 6
23 22 22 22 21 21 21 21 21 22 24 25 25 23 21 21 20 19 17 15 13 11 11 10 10 9 9 8 8 8 8 8 8 9 9 10 10 10 10 11 11 11 11 11 10 10 9 10 11 12 12 12 11 11 11 10 10 10 11 11 11 10 9 9 9 9 8 9 10 9 7 6 6 7 6 6 6 5 5 5 5 4 4 4 4
21 22 22 21 21 21 21 21 21 22 23 24 24 22 21 20 18 17 15 14 12 11 10 10 10 9 8 8 8 8 8 7 8 9 9 9 9 10 10 11 12 12 11 11 11 10 10 11 12 12 12 11 11 11 11 10 10 10 10 10 10 10 9 9 9 9 8 8 8 9 8 7 6 6 5 5 5 4 4 3 3 2 2 2 2
20 21 21 21 21 21 21 21 21 22 22 23 22 21 19 18 17 15 14 13 12 11 10 10 9 9 8 8 8 7 7 7 8 8 8 9 9 9 10 10 11 11 10 10 10 10 10 10 11 10 9 9 9 10 9 9 9 9 9 9 9 9 9 8 9 9 9 8 8 8 8 7 7 6 4 5 5 5 4 2 1 1 1 2 1
20 20 20 21 20 20 21 21 21 21 21 21 20 19 18 17 16 14 13 12 11 11 10 10 9 8 8 7 7 7 6 7 8 8 8 8 7 8 8 9 9 9 9 8 8 9 9 10 9 9 8 8 9 9 8 8 8 8 8 9 9 9 9 8 9 9 9 8 7 7 8 8 8 7 5 4 4 5 4 3 1 1 1 2 2
21 19 19 20 20 20 20 21 21 21 21 20 19 18 18 17 15 14 13 12 11 10 10 10 9 8 8 7 7 6 6 7 8 8 7 7 6 6 7 7 7 7 7 7 8 8 9 10 9 9 9 9 9 9 8 8 8 8 8 8 8 8 8 8 8 8 7 8 7 7 7 7 8 8 7 5 4 4 4 3 3 3 2 2 3
21 20 19 19 19 19 20 20 21 21 21 19 19 18 17 16 15 13 12 11 11 11 10 10 9 8 7 7 7 6 7 7 7 7 6 6 5 4 4 5 5 5 5 6 7 9 9 10 9 9 10 10 10 10 9 9 9 9 8 8 8 8 8 7 7 6 6 7 7 6 6 6 7 7 7 6 6 5 4 4 4 4 3 2 3
21 20 19 19 19 19 19 20 20 21 20 19 18 17 16 15 14 13 12 11 11 11 11 10 9 8 7 7 6 6 6 6 5 5 5 4 4 3 3 3 4 5 5 6 8 8 9 9 9 9 11 11 10 10 9 9 9 8 8 8 8 7 7 7 6 5 5 5 6 6 5 5 6 6 7 6 7 7 6 5 4 4 3 3 3
22 21 20 19 19 19 19 18 19 19 19 18 17 16 15 15 14 13 12 12 11 11 10 10 9 8 7 6 5 5 4 4 4 4 4 3 3 2 2 3 4 5 5 6 7 7 8 9 8 9 10 10 10 9 8 8 8 8 8 7 7 7 6 6 5 4 4 4 5 5 5 4 5 5 6 6 7 7 7 6 5 4 4 4 3
22 22 21 20 19 18 17 17 17 17 17 17 16 15 15 14 14 13 13 12 12 11 10 9 9 8 6 5 4 3 3 3 3 3 3 3 2 2 3 3 4 4 5 5 5 6 7 7 7 7 9 10 10 9 8 8 8 7 8 7 6 6 6 5 4 4 3 4 4 4 4 4 4 4 5 5 6 6 7 6 6 5 5 4 4
22 22 21 20 19 18 17 17 16 16 16 16 16 15 14 14 13 13 13 12 12 11 10 9 8 7 5 4 3 2 2 3 3 3 3 2 2 3 4 5 5 4 4 3 4 5 5 5 6 7 8 10 11 11 9 8 8 8 7 6 5 5 5 5 4 2 2 2 3 4 4 3 3 3 4 4 5 6 6 6 6 5 5 5 4
21 21 21 20 19 18 18 17 16 16 16 16 15 15 14 13 13 13 12 12 12 10 10 9 8 6 5 4 3 3 3 4 4 3 2 2 2 3 5 5 5 4 3 2 2 4 4 4 6 8 8 10 12 13 11 9 8 8 7 7 6 5 5 5 4 2 1 1 1 3 3 3 2 2 3 3 4 4 5 5 5 5 5 4 4
19 19 19 19 19 19 18 17 17 16 16 16 15 15 14 13 13 12 12 12 11 10 10 8 7 6 5 5 4 4 5 5 4 3 2 2 2 3 3 4 4 3 2 2 2 3 4 4 6 8 9 10 13 13 12 10 10 9 9 9 7 5 4 4 3 3 2 2 2 2 2 2 2 2 2 3 3 3 4 4 4 4 4 4 3
17 18 18 18 18 18 18 17 17 16 16 15 15 14 14 13 13 13 12 12 11 10 9 8 7 6 5 5 5 5 5 4 3 3 2 2 2 2 1 2 2 1 1 2 2 3 4 5 6 8 9 11 12 12 12 11 11 11 12 11 9 7 5 3 2 3 3 4 4 4 3 3 3 2 2 2 2 2 2 3 3 3 3 3 3
17 17 17 17 17 17 18 17 17 17 16 15 15 14 14 13 13 12 12 12 11 10 9 8 7 6 6 6 5 5 4 3 3 3 2 2 2 1 0 1 1 1 1 2 2 3 5 6 6 8 10 10 11 11 12 12 11 11 13 12 10 7 5 3 2 3 4 5 6 5 5 5 4 3 3 2 2 2 2 2 1 1 2 2 2
15 16 17 17 18 18 18 18 17 17 17 16 16 15 14 13 13 13 12 11 11 10 9 8 8 7 6 6 6 5 4 3 3 3 3 3 2 1 0 2 3 3 3 2 2 3 4 5 7 9 11 11 11 10 11 12 11 12 14 12 8 6 5 4 3 4 4 5 6 7 6 6 5 5 4 3 3 3 3 2 2 1 1 1 2
15 16 17 17 18 18 18 18 18 17 17 17 16 15 15 14 14 13 12 11 10 9 9 8 8 8 7 7 6 5 5 4 3 3 3 3 2 0 0 2 3 4 4 3 3 3 4 5 7 10 11 12 12 11 11 11 11 12 14 12 7 4 4 3 4 4 5 5 6 7 8 8 6 6 5 4 4 3 4 3 3 2 2 1 0
15 15 16 17 17 17 17 17 18 18 17 17 16 16 15 14 13 12 12 10 10 9 9 9 8 7 7 7 6 5 5 4 4 3 2 2 1 1 1 2 3 4 4 4 3 4 4 5 7 8 10 11 11 11 12 12 12 11 14 13 7 4 3 3 4 5 6 6 5 5 7 8 7 6 5 5 5 5 4 4 3 3 2 2 2
15 15 15 16 17 17 17 17 17 17 17 16 16 15 15 14 13 12 11 10 10 10 9 9 8 7 7 6 6 5 5 5 4 4 3 2 1 2 2 2 3 4 4 4 4 4 5 6 7 8 9 9 10 11 12 12 13 12 13 14 10 6 3 3 5 5 6 6 4 3 5 7 7 6 6 6 6 6 5 4 3 3 3 3 3
16 16 15 16 16 16 16 16 17 17 16 16 15 15 14 13 13 12 11 11 10 10 9 8 7 7 6 6 5 5 5 5 5 4 4 3 2 3 3 3 4 4 4 4 5 5 6 6 6 8 9 10 11 11 12 13 13 13 13 13 10 7 4 2 3 5 6 6 4 2 4 6 7 6 6 7 7 7 5 5 4 4 4 5 4
16 15 15 16 16 16 16 16 16 16 16 16 15 14 14 13 13 12 11 11 10 10 9 8 8 7 7 6 5 5 5 5 5 5 4 4 3 3 4 4 4 4 4 5 5 6 6 6 7 8 10 12 12 11 12 14 13 13 14 14 10 7 4 2 2 3 5 5 4 3 3 4 5 5 6 7 8 8 6 6 6 6 6 5 5
16 15 16 16 16 16 16 16 16 16 15 15 15 14 13 13 13 12 11 11 10 10 9 8 8 7 7 7 6 6 6 5 5 5 4 4 4 4 4 4 4 4 5 5 6 6 7 7 8 10 11 12 13 12 13 14 15 13 13 15 11 6 3 2 1 1 3 3 3 2 2 3 3 4 6 7 9 9 8 9 9 9 8 6 6
16 17 17 17 17 17 17 16 16 15 15 15 15 14 13 13 12 12 12 11 10 10 9 9 9 8 8 8 7 7 6 6 5 5 5 5 5 5 5 4 4 5 5 6 7 8 9 10 11 12 13 13 13 13 13 15 16 14 13 14 12 8 4 2 1 1 1 2 2 1 1 1 3 4 5 7 9 10 11 11 11 10 9 7 7
18 18 17 17 17 17 17 16 15 15 15 15 14 14 13 12 12 12 11 11 10 10 10 9 9 9 9 8 8 8 7 6 6 5 6 6 6 6 5 4 4 5 6 7 8 9 11 12 13 14 14 14 14 13 13 15 15 14 13 12 11 9 6 3 1 1 1 2 2 1 1 1 3 3 3 5 8 10 11 11 11 10 10 8 8
19 18 17 17 17 17 16 15 15 14 14 14 14 14 13 13 13 12 11 11 11 10 10 9 9 9 9 8 8 8 8 7 6 6 6 7 6 5 5 5 5 5 6 7 9 10 11 12 13 14 14 14 15 14 13 14 14 13 12 11 10 9 7 4 2 1 2 2 2 1 1 2 3 4 3 4 6 8 9 11 11 11 11 10 9
19 18 18 18 17 17 16 16 15 15 14 14 14 14 14 13 13 12 12 11 11 11 10 10 10 10 9 9 9 9 9 8 7 7 7 7 6 5 5 5 6 7 8 9 10 11 11 12 12 12 13 14 14 15 14 13 12 10 10 10 9 9 7 4 3 2 3 2 2 2 4 4 4 4 5 5 5 6 7 7 8 8 9 9 9
19 19 19 18 17 17 16 16 15 15 15 14 14 14 14 14 13 13 12 11 11 11 11 11 11 11 10 11 10 10 10 9 8 8 8 7 6 6 6 7 8 8 9 9 10 10 11 12 12 12 13 13 13 14 13 12 10 8 9 10 9 9 8 5 2 3 3 2 2 3 5 6 6 6 5 5 5 5 5 5 4 4 5 5 6
21 21 20 20 19 18 17 17 16 16 16 15 15 15 15 15 14 14 13 11 11 12 12 11 11 12 12 12 12 11 10 10 9 9 8 7 6 7 8 8 9 9 9 9 9 10 11 11 11 11 11 11 11 11 11 11 10 8 8 9 9 9 10 6 2 2 3 2 3 3 5 7 8 8 8 7 6 6 6 6 5 4 4 4 5
22 22 22 21 21 20 19 18 17 17 16 16 16 16 15 15 15 14 13 11 11 11 11 11 12 12 12 12 12 12 12 11 10 9 9 7 7 8 8 10 10 10 9 8 8 9 9 9 9 8 8 9 9 9 9 9 9 9 8 8 8 8 10 8 5 4 2 1 2 3 4 7 8 9 9 8 8 7 7 7 7 6 6 6 6
24 24 23 22 22 21 20 19 18 18 17 17 15 15 14 12 11 10 9 10 10 10 10 11 12 12 13 13 13 13 13 12 10 10 9 7 7 8 9 10 10 10 9 7 7 7 6 6 5 6 7 8 8 8 8 8 9 9 8 7 6 7 8 8 8 5 2 1 1 2 3 6 8 8 8 8 9 9 9 8 8 8 7 7 7
25 24 23 22 22 22 21 20 20 19 18 17 15 14 12 10 8 7 8 10 11 11 10 11 12 13 14 13 14 14 13 12 11 10 9 8 7 8 9 10 10 9 6 4 4 4 3 4 5 6 7 8 8 8 9 9 9 9 8 7 6 6 6 7 7 6 4 3 2 1 2 5 7 6 6 7 8 9 9 9 9 9 9 9 9
25 25 24 24 24 23 23 22 21 20 18 17 16 14 12 11 10 9 10 11 12 12 12 14 15 16 16 15 15 15 14 13 11 10 9 8 8 8 8 9 8 5 2 0 1 3 4 6 7 7 8 8 9 10 11 11 11 10 9 8 7 7 7 7 7 6 6 6 5 3 3 4 3 2 3 5 8 9 9 9 9 9 10 10 10
26 27 26 26 24 23 22 22 21 20 18 17 16 15 14 13 13 13 14 14 14 15 15 16 17 17 17 16 16 15 14 13 12 11 10 8 8 7 7 7 5 2 2 3 4 5 6 7 8 9 10 10 11 12 13 13 13 12 11 10 10 9 9 9 8 6 6 7 6 6 6 3 1 2 2 3 6 8 8 8 8 9 10 10 10
26 26 25 24 22 21 21 21 21 21 19 18 18 18 17 17 17 17 17 16 15 14 12 11 12 15 15 15 15 15 15 14 14 12 10 8 8 7 7 5 4 4 5 6 6 7 7 8 9 10 10 11 12 12 13 13 13 13 11 11 10 10 10 10 8 7 6 6 7 8 8 7 5 5 4 4 4 5 6 7 7 9 9 9 10
27 25 24 23 21 21 21 22 22 22 21 20 20 19 19 19 19 19 16 14 12 9 7 5 7 10 12 13 14 15 15 15 14 12 10 8 7 7 6 6 6 6 6 6 7 7 7 7 8 9 9 10 11 11 11 12 12 12 11 11 10 9 10 10 9 8 8 7 7 8 9 9 8 7 6 5 4 4 5 6 7 8 8 8 9
26 25 24 24 24 23 23 23 23 24 24 23 22 21 20 20 20 19 17 15 12 9 8 7 8 11 13 15 15 16 16 16 15 12 10 8 7 7 7 8 8 8 7 7 7 7 6 6 7 8 9 8 9 9 9 9 10 10 10 10 10 9 10 10 9 9 10 9 9 8 8 8 8 8 7 6 5 5 5 7 9 11 10 9 9
23 25 26 26 26 25 25 24 23 24 25 25 25 23 21 20 19 19 18 16 13 11 11 11 12 15 17 17 17 17 17 16 14 12 10 9 8 9 9 10 9 9 8 7 7 6 6 6 7 7 7 7 7 9 9 10 10 10 10 10 10 10 10 10 10 10 11 11 12 11 10 9 9 8 8 7 6 4 4 7 10 13 13 13 11
22 25 25 25 26 26 26 26 26 25 25 26 26 25 23 22 21 20 18 16 13 12 14 15 16 18 19 19 19 18 17 16 13 12 10 10 10 11 11 11 10 9 9 8 7 6 5 5 6 6 5 5 7 9 11 12 13 13 12 11 10 10 11 11 10 10 11 12 13 13 13 12 10 9 8 8 8 6 4 7 10 12 12 12 12
19 22 25 26 27 28 28 28 28 27 26 26 26 26 25 24 24 22 19 17 15 15 16 17 17 18 19 20 20 19 17 15 13 12 12 11 12 13 12 12 11 10 9 8 6 5 5 5 5 6 6 7 8 10 12 13 14 15 14 13 11 10 10 10 10 10 10 11 12 13 14 13 13 11 9 7 7 7 6 6 7 8 8 9 10
16 19 23 27 28 29 30 30 29 29 28 28 27 27 26 26 26 24 21 19 17 17 17 17 17 18 18 18 19 19 18 16 14 14 13 13 14 14 13 12 12 11 10 9 7 5 4 5 4 6 8 9 9 11 12 14 15 15 15 15 13 12 11 10 10 10 10 11 12 12 13 13 13 12 11 8 6 5 5 4 3 4 6 7 8
Wind_Direction
146 143 139 138 134 131 131 135 137 138 137 136 136 136 138 139 140 138 135 133 132 131 127 124 122 120 115 110 105 103 104 107 108 105 99 93 91 90 88 84 80 78 77 79 82 88 92 94 95 96 98 102 103 95 76 68 61 61 58 55 57 58 56 53 49 53 71 108 123 124 126 127 131 130 129 132 124 124 126 124 127 140 158 173 184
144 139 138 136 133 133 135 138 139 139 139 138 137 139 141 142 142 139 136 134 133 129 126 123 121 117 113 109 106 108 111 112 110 104 99 94 90 86 83 79 77 75 74 74 76 80 82 82 83 83 83 82 83 77 69 64 67 68 60 56 58 59 58 55 51 53 65 99 123 125 127 127 130 130 128 127 116 114 116 117 121 128 140 149 164
141 137 138 136 135 135 136 138 140 140 140 139 140 141 143 145 143 140 137 135 131 128 125 122 119 115 111 109 110 114 115 112 108 104 99 94 88 83 80 78 77 74 74 74 74 76 77 77 75 77 75 70 70 71 70 66 69 71 63 58 59 59 60 59 54 52 58 84 120 125 125 127 127 128 128 121 113 111 110 111 117 123 130 131 141
141 139 138 138 137 137 137 139 141 142 142 142 143 145 146 146 144 142 138 134 131 128 125 120 117 113 112 113 116 116 114 110 105 99 94 88 84 81 79 79 77 75 74 75 76 76 75 75 73 74 74 66 63 68 70 68 71 70 64 61 61 59 59 62 59 53 53 67 108 125 122 123 123 122 118 111 108 105 102 103 108 115 122 127 136
145 142 140 141 141 141 142 142 144 144 144 146 146 148 149 148 146 143 138 134 132 128 123 119 116 114 115 116 116 114 110 104 98 92 87 84 81 79 78 79 78 78 77 77 79 79 77 74 71 70 73 75 68 69 73 74 74 69 64 62 62 59 57 62 63 58 54 59 88 123 123 120 121 116 110 104 103 98 95 99 103 108 115 121 130
149 145 143 143 144 145 145 144 145 146 147 148 149 151 151 150 147 143 139 136 133 128 122 119 118 117 116 115 113 111 105 98 92 87 85 82 80 80 81 81 80 79 78 78 79 78 76 72 69 67 71 84 77 72 80 81 77 71 71 69 65 61 57 59 62 60 57 58 73 108 120 116 116 114 109 103 101 97 94 94 98 104 110 115 121
153 150 148 146 147 147 146 146 147 148 149 151 152 153 153 151 148 144 141 137 133 127 123 121 119 116 113 112 113 108 100 94 89 86 84 81 81 84 85 85 82 78 76 77 77 74 70 68 67 69 70 75 73 70 77 80 73 67 70 71 66 63 59 56 59 61 60 61 67 88 109 112 111 111 110 104 101 98 95 91 92 98 107 113 116
154 153 151 149 149 148 148 148 148 149 150 152 154 155 155 153 149 145 142 138 134 129 124 122 118 114 112 113 113 106 98 93 90 86 82 80 82 85 86 85 83 78 75 75 75 72 68 68 73 76 70 68 70 67 70 76 72 65 64 66 64 61 60 59 60 62 64 66 68 77 95 106 107 106 109 108 106 102 100 97 94 94 99 107 114
153 152 151 150 150 149 149 149 149 151 152 154 155 157 156 154 150 146 144 140 136 131 126 121 117 114 114 114 111 104 97 93 88 82 79 80 82 83 84 83 83 80 79 77 73 71 69 73 79 81 75 71 74 69 68 72 71 69 69 66 62 59 58 62 63 63 66 70 74 78 88 103 110 110 110 110 112 112 108 101 99 98 96 102 112
152 152 152 151 151 151 150 150 151 152 153 155 157 158 157 154 150 147 145 142 139 133 127 121 117 116 116 115 110 103 94 90 84 79 77 77 79 81 82 80 80 82 84 81 76 73 71 75 79 79 74 71 74 71 66 65 66 71 75 70 64 62 59 63 65 65 67 69 76 84 90 102 112 114 112 111 116 118 114 105 102 101 99 101 107
152 153 152 153 153 152 152 151 152 154 155 156 157 158 157 155 151 149 147 144 140 134 128 122 119 119 119 117 108 99 90 86 80 76 76 75 77 79 80 77 77 81 85 83 81 79 76 75 75 73 67 65 67 65 60 59 62 67 72 71 68 66 63 62 66 69 71 71 75 88 97 103 109 110 111 115 119 121 120 113 108 104 103 105 107
155 155 155 155 156 154 152 152 154 155 156 157 157 158 158 156 152 151 149 145 141 134 129 124 125 124 123 118 103 93 87 84 79 76 77 76 78 79 78 76 76 79 82 84 86 85 81 78 74 70 65 62 62 61 57 57 58 59 62 64 66 64 60 63 68 72 76 74 75 86 100 108 112 110 111 114 117 119 121 115 110 108 106 109 113
157 159 159 158 158 154 153 154 156 158 158 157 157 159 159 156 153 151 149 146 141 135 132 130 130 128 123 114 99 91 88 85 81 80 80 82 81 80 80 78 79 80 81 85 88 88 84 80 74 70 66 64 63 62 58 55 53 53 54 56 59 58 55 62 69 71 77 80 77 81 91 103 111 115 117 115 114 116 117 115 112 105 95 105 113
159 160 162 162 159 156 155 156 158 159 159 158 159 160 159 156 154 151 149 146 142 138 137 136 134 129 123 111 100 94 92 91 88 86 87 88 83 81 83 83 84 84 85 86 88 86 80 75 71 67 65 64 64 63 60 57 53 50 51 53 56 58 60 66 67 68 74 83 83 79 83 92 102 111 118 118 118 121 123 124 122 110 88 97 108
162 162 164 164 162 159 157 158 159 160 160 160 161 160 158 155 153 152 150 147 144 143 141 138 135 130 122 111 103 99 99 98 96 95 95 92 86 84 86 89 88 88 89 89 88 82 74 67 64 62 60 59 57 56 54 53 51 45 45 50 58 65 74 77 69 67 73 81 86 83 81 83 88 96 108 113 116 116 118 126 142 154 121 108 95
165 166 167 166 166 164 160 160 160 161 162 162 162 161 158 157 156 155 153 149 147 146 143 141 138 132 124 114 107 106 103 99 101 103 102 97 92 89 90 93 91 92 91 89 86 76 69 64 60 59 58 55 51 48 44 42 45 43 44 52 61 66 76 84 76 69 72 79 84 88 87 84 84 86 92 100 106 103 102 101 87 53 75 94 83
168 170 171 169 168 168 165 163 162 163 164 164 164 163 161 160 160 159 156 153 151 148 146 146 142 136 127 119 116 113 103 100 105 109 111 108 101 94 92 94 92 90 87 83 81 74 68 63 60 60 60 58 52 46 42 40 43 45 48 53 54 55 64 82 86 77 74 80 85 89 92 90 89 89 91 94 98 97 94 92 84 74 61 59 84
169 173 174 172 171 172 169 166 165 165 166 167 167 166 165 163 163 162 160 157 154 153 152 151 146 140 133 127 127 120 106 102 106 115 120 116 108 97 88 90 91 87 83 80 78 73 67 64 62 60 61 59 52 47 44 43 40 39 44 44 43 47 56 69 84 85 80 84 90 93 95 96 94 92 91 91 92 90 88 89 88 89 81 50 68
170 174 176 174 173 175 173 171 168 167 168 169 170 169 167 166 167 166 165 163 161 160 157 153 149 144 138 136 136 126 109 101 107 117 124 124 119 105 89 82 86 88 87 82 76 71 68 68 65 59 61 60 53 48 46 46 40 37 38 37 36 39 46 56 72 87 91 89 89 91 95 99 96 96 93 90 88 84 84 88 92 92 93 75 59
171 173 174 174 174 175 174 173 171 169 169 171 172 172 171 171 172 171 170 168 166 165 161 155 151 147 142 140 140 130 110 101 109 119 119 127 128 116 100 78 79 86 90 85 76 71 70 73 69 58 57 56 54 50 49 47 41 37 33 32 32 28 30 40 57 78 93 92 91 90 88 89 88 93 94 91 86 84 85 85 91 92 95 95 81
172 173 173 173 173 173 173 173 172 170 171 174 176 177 178 178 176 174 171 170 169 167 161 157 152 149 147 143 141 136 118 109 118 123 118 123 131 126 109 91 83 83 85 85 79 74 72 74 72 59 46 42 45 45 45 44 41 36 29 26 26 22 20 21 33 59 85 92 100 102 92 87 81 79 87 90 87 85 86 86 92 97 101 107 107
173 174 173 172 171 171 171 173 172 172 174 177 180 182 184 181 177 173 171 170 169 166 162 159 156 153 153 147 145 152 138 132 134 125 122 130 133 122 112 104 97 93 83 80 83 82 74 63 61 54 39 29 30 31 31 34 36 31 22 14 8 4 3 0 3 20 64 92 107 112 110 106 96 85 82 86 88 84 82 85 89 95 107 116 125
175 174 173 171 170 171 171 172 173 174 177 179 182 183 184 182 177 173 171 170 167 166 165 163 161 161 163 155 151 154 146 145 144 133 134 147 131 112 111 108 103 99 81 64 74 82 76 52 41 40 35 24 21 23 22 25 28 22 12 0 347 337 332 338 338 329 326 154 148 129 124 128 126 116 95 88 87 84 83 81 83 88 99 113 129
174 174 174 172 170 171 170 171 173 175 177 179 180 180 180 179 177 174 172 171 169 169 170 168 168 170 169 159 155 149 147 152 149 145 150 147 125 109 107 106 103 98 72 39 40 58 61 44 26 25 27 21 18 19 16 14 14 9 3 357 349 336 322 319 318 303 279 230 207 183 158 160 157 153 140 116 97 90 96 93 86 87 91 101 121
174 176 175 173 171 171 171 173 174 175 177 177 177 177 178 177 176 176 175 174 174 174 174 173 174 176 169 158 155 148 146 153 156 165 174 170 141 126 112 92 90 87 53 27 18 23 34 28 11 12 19 19 16 15 11 6 3 1 359 356 354 351 340 320 302 284 263 244 233 225 218 216 204 188 175 153 134 122 127 124 109 105 100 94 108
176 177 175 175 174 173 173 173 174 175 175 176 177 178 178 179 179 180 180 180 179 178 178 178 179 176 167 157 155 152 146 151 165 178 197 214 192 169 197 358 339 323 350 359 4 10 21 13 356 2 11 13 13 9 4 2 358 0 1 356 353 353 347 329 302 281 263 249 242 236 230 223 221 214 194 181 183 179 186 179 154 138 117 91 81
174 175 176 176 176 176 174 173 175 176 176 178 179 179 180 181 183 184 186 185 184 182 181 182 181 174 164 162 161 157 153 161 182 186 199 218 213 188 332 322 305 309 321 327 344 6 14 1 348 354 358 359 4 6 0 359 357 359 2 360 354 352 340 324 309 292 281 269 256 245 238 234 235 233 219 213 215 209 214 212 211 236 223 81 64
177 177 177 177 177 176 176 174 175 177 179 181 180 180 183 185 186 187 189 188 187 186 185 183 180 173 167 168 167 165 165 177 195 199 210 219 218 193 332 300 294 302 311 313 331 356 4 356 348 350 352 349 351 357 358 358 356 357 360 359 358 352 337 325 320 306 294 282 268 251 240 236 236 235 226 221 228 230 227 223 226 238 263 300 356
179 180 180 179 179 178 178 177 177 180 183 184 183 184 186 188 188 189 190 188 188 187 185 182 178 173 172 177 177 177 180 188 204 216 231 225 213 235 246 283 293 297 303 312 327 341 347 348 345 344 347 345 344 350 353 351 350 354 357 354 351 348 349 349 342 326 312 304 286 254 236 228 225 224 216 216 228 235 235 236 238 238 247 265 272
179 182 182 181 182 182 181 181 182 183 186 187 187 189 189 189 189 191 190 188 190 188 182 181 182 178 178 187 191 193 198 200 204 214 231 226 221 256 268 289 294 299 306 313 324 329 331 338 341 339 341 344 347 349 349 346 344 348 350 349 344 339 358 7 354 342 328 327 320 263 231 222 219 213 202 205 221 229 232 238 245 250 244 237 245
184 184 182 184 186 185 184 185 187 187 188 190 190 192 191 191 191 192 190 190 193 189 183 185 186 185 187 196 202 204 208 206 207 211 216 215 229 256 271 279 283 298 308 309 315 319 322 330 337 338 342 347 351 350 346 342 340 341 341 343 344 340 357 16 357 348 333 333 335 289 233 220 218 213 204 203 211 216 221 231 234 243 244 233 233
185 183 181 186 188 187 188 189 191 191 190 191 191 191 191 193 195 191 191 195 195 191 189 190 190 193 196 204 206 202 203 204 207 210 211 214 224 241 257 269 279 298 306 305 307 311 317 326 334 338 342 346 349 348 343 338 336 339 336 336 344 346 349 355 350 346 331 332 334 300 251 229 226 222 219 215 208 203 211 230 231 231 236 231 230
183 183 186 188 188 188 190 191 193 193 191 192 190 189 191 195 196 192 196 198 196 195 193 193 195 197 199 205 206 203 208 207 205 212 218 222 226 234 246 256 272 290 299 299 302 308 316 324 330 335 338 341 345 344 338 332 331 336 333 330 337 346 340 323 318 329 323 328 333 307 267 248 236 224 221 219 210 198 204 226 229 227 231 230 232
185 187 189 188 189 190 191 193 193 192 192 193 191 190 193 195 196 195 199 199 197 199 199 199 200 199 200 206 209 211 219 217 213 220 226 231 235 238 238 244 268 288 298 302 306 313 318 324 329 333 334 335 341 339 332 328 327 330 329 324 327 335 331 317 301 313 325 308 309 325 323 239 221 218 215 212 210 203 206 223 229 227 228 232 242
190 192 191 189 191 193 194 194 192 192 193 193 192 193 194 195 197 198 199 199 200 203 203 204 204 203 203 205 210 217 226 226 221 224 232 237 240 242 243 255 280 294 302 306 313 319 321 324 327 329 329 329 333 333 328 326 325 327 324 318 319 323 319 312 307 317 300 261 259 309 16 157 187 193 199 201 207 208 212 224 232 235 234 234 243
193 192 193 193 194 195 196 197 195 195 194 192 192 195 196 195 198 201 201 201 204 208 207 208 210 212 210 208 212 217 225 230 225 228 237 244 247 252 260 270 284 293 301 309 316 319 321 323 325 325 323 323 326 327 327 325 325 325 318 311 313 313 308 305 301 274 263 247 215 224 236 215 189 174 176 191 204 212 218 228 236 242 245 243 242
196 194 195 196 197 197 197 198 199 200 198 196 196 199 200 199 200 204 206 204 206 211 212 214 219 221 218 215 217 218 223 227 226 229 238 249 258 266 273 280 289 296 304 313 317 318 319 321 321 320 319 320 321 324 327 326 326 324 311 307 310 309 303 292 283 268 256 232 179 203 220 224 219 197 187 189 198 208 211 222 236 240 243 244 242
199 198 199 199 200 202 201 200 201 202 202 202 203 205 206 206 205 207 210 209 208 213 216 217 220 222 220 218 217 217 220 225 227 233 241 250 262 273 280 287 294 301 309 315 318 317 318 318 316 313 315 318 322 327 329 328 328 321 309 309 311 308 300 286 281 281 263 219 182 202 215 224 230 226 215 202 197 201 201 205 222 231 235 244 244
200 200 201 200 202 205 205 204 204 204 204 205 207 210 212 213 212 212 213 212 211 215 216 215 216 217 216 217 217 216 221 226 230 234 239 247 261 274 282 288 295 303 309 315 317 315 316 317 314 313 318 324 332 338 336 333 331 327 322 319 316 309 301 301 335 320 285 215 186 205 223 233 239 239 234 225 214 211 211 210 209 215 231 253 257
201 201 202 202 203 203 204 204 204 205 206 207 210 213 215 217 218 218 219 218 219 220 216 213 214 216 216 217 218 219 222 226 230 233 238 249 263 276 285 292 299 305 307 310 314 317 320 322 321 327 335 343 350 351 346 341 338 340 339 331 321 311 308 321 353 1 332 241 202 218 242 252 253 248 238 230 229 227 228 228 222 224 234 249 258
203 204 202 203 204 204 202 201 202 205 206 207 210 213 215 217 219 222 225 226 228 226 222 220 221 222 221 220 221 223 225 226 230 236 244 257 270 282 290 296 302 302 300 303 313 324 331 336 347 358 2 4 5 359 355 354 352 352 350 341 331 318 319 336 356 8 1 309 270 228 245 256 252 251 247 237 233 232 234 239 239 239 243 250 257
203 204 203 202 204 205 203 201 204 205 206 208 211 213 214 215 215 213 217 223 228 229 227 228 229 228 226 223 224 226 228 230 233 238 247 258 271 283 290 296 298 293 291 297 318 342 5 23 29 24 20 18 15 11 10 12 8 4 2 355 345 337 340 351 359 354 340 348 356 326 273 257 243 243 258 258 252 243 237 242 249 253 254 256 261
204 205 205 206 207 206 204 203 204 206 208 211 212 214 213 213 214 211 213 219 224 226 226 226 227 227 226 224 225 228 230 234 239 242 248 258 270 281 287 291 291 284 272 263 61 66 64 59 52 44 40 35 31 30 28 27 23 18 12 4 360 359 358 1 2 348 336 347 356 340 297 261 236 238 271 277 273 263 251 250 256 260 260 260 263
206 207 207 208 208 207 206 205 205 208 211 213 214 216 215 214 215 215 217 221 224 225 227 228 227 226 226 224 225 229 234 237 242 244 249 260 269 276 280 279 271 230 158 132 108 91 81 74 68 61 54 49 45 42 38 36 32 27 21 14 14 10 5 3 1 352 344 342 340 332 316 300 11 44 353 312 289 278 271 266 265 266 267 267 267
207 209 209 209 208 207 209 209 210 212 215 216 217 218 218 217 218 220 222 225 229 233 238 241 236 228 224 223 225 230 235 238 241 244 249 258 266 270 265 249 206 167 146 126 110 102 94 84 75 67 59 54 49 45 42 39 34 30 26 22 20 11 6 6 358 352 348 340 334 330 330 339 4 25 25 356 322 306 290 280 274 272 274 276 276
209 210 211 211 210 210 212 215 216 217 218 220 221 220 220 222 225 230 235 240 245 250 256 255 237 222 215 216 223 230 235 239 241 242 246 253 260 254 230 197 172 157 145 129 119 114 103 87 76 68 59 53 50 46 42 37 34 30 25 22 19 11 7 6 358 350 345 341 342 338 337 345 356 8 15 4 354 349 327 309 299 292 289 284 280
211 209 210 211 211 211 212 216 218 220 222 224 225 223 221 223 229 235 242 247 250 251 249 236 217 208 208 213 221 228 234 240 242 241 244 249 244 222 195 174 166 158 150 138 129 124 109 88 75 67 59 52 47 44 38 33 31 27 21 18 13 8 7 5 359 351 345 342 345 343 340 348 354 357 1 357 356 358 344 327 315 311 308 299 289
218 213 211 210 210 212 213 215 218 220 224 227 229 228 225 225 229 234 239 242 243 242 241 233 219 210 210 214 219 225 231 236 239 239 239 238 221 199 183 171 167 164 156 147 138 130 109 86 73 67 63 52 40 39 37 32 30 24 17 11 6 2 2 5 2 355 350 345 344 344 342 347 350 348 348 344 340 346 335 314 306 307 307 304 299
226 224 220 217 214 213 214 216 217 218 221 224 228 230 229 228 228 231 235 238 239 235 234 233 228 220 215 215 218 222 228 231 233 235 233 226 209 194 183 174 170 168 160 153 146 129 106 89 78 71 66 56 44 42 41 37 33 30 25 18 10 5 3 5 5 359 354 349 348 348 344 344 342 339 340 335 329 330 321 304 299 301 302 301 302
230 230 229 227 223 219 217 217 218 219 219 220 224 227 228 228 228 230 231 233 235 233 233 236 235 232 224 218 219 221 225 227 229 232 230 219 205 194 185 178 174 170 164 159 152 135 116 106 90 72 64 61 52 44 41 38 35 33 32 29 22 15 11 11 10 5 359 354 353 351 347 344 339 337 338 333 326 323 323 314 302 299 295 292 297
228 229 228 228 228 226 224 222 221 221 221 221 221 223 225 227 227 229 231 231 233 234 236 239 242 241 235 225 221 223 225 226 227 230 226 213 202 194 189 183 177 171 168 166 162 155 141 127 104 72 62 60 51 43 39 35 36 36 35 34 32 25 19 16 13 10 8 2 356 351 345 341 338 337 336 335 332 320 320 322 303 291 284 282 285